Probability
0 0 10 10 10 10 19 19 13 16 16 13 13 13 16 16 19 19 13 16 16 26 29 19 23 29 29 19 19 16 23 16 3 6 13 26 23 16 16 16 10 3 16
0 0 13 10 6 10 10 13 16 10 10 10 13 13 13 13 13 13 16 16 16 19 19 19 16 16 23 19 16 13 10 6 10 6 6 6 13 13 13 13 16 3 16
0 3 6 10 6 6 13 13 13 13 10 13 13 13 13 13 16 13 16 16 16 16 16 13 13 10 10 13 13 16 6 3 3 3 3 0 3 6 10 13 16 16 16
0 3 6 10 10 13 10 16 16 16 10 10 10 10 10 10 10 10 6 10 13 13 13 13 13 6 10 13 6 10 3 3 0 0 0 0 3 3 3 6 10 13 10
3 6 6 13 10 13 10 10 13 13 13 6 6 10 10 6 6 3 6 6 10 10 10 10 13 6 6 3 3 0 3 0 0 0 0 0 0 3 13 10 10 10 10
6 6 6 10 10 10 6 6 6 10 10 10 10 10 6 6 6 6 6 6 10 10 10 10 10 10 13 3 0 0 0 0 0 0 0 0 0 6 6 10 10 10 6
6 6 6 6 6 6 6 6 6 10 10 10 10 10 6 6 6 6 6 6 6 6 10 10 10 3 3 3 3 3 3 0 0 0 0 0 0 3 3 13 6 3 6
6 6 6 6 6 6 6 6 6 6 6 6 10 6 6 6 6 6 6 6 6 6 6 10 6 3 3 3 3 0 0 0 0 0 0 0 0 3 3 10 6 6 6
6 6 6 6 6 6 6 6 6 6 6 6 6 6 6 6 6 6 6 6 6 6 3 6 6 6 3 3 3 0 0 0 0 0 0 0 0 3 3 3 6 6 10
3 3 3 6 6 6 6 6 6 6 6 6 6 6 6 6 6 6 6 6 3 3 3 6 6 3 3 3 3 0 0 0 0 0 0 0 0 0 3 6 6 6 6
3 3 3 3 3 3 6 6 6 6 6 6 6 3 3 3 3 3 3 3 3 3 3 3 3 3 3 0 0 0 0 0 0 0 0 0 0 0 0 6 6 6 6
3 3 3 3 3 3 3 3 3 3 3 3 3 0 0 0 0 3 3 3 3 3 3 3 3 3 3 0 0 0 0 0 0 0 0 0 0 0 0 6 6 3 6
3 3 3 3 3 3 3 0 3 3 3 3 0 0 0 0 0 0 0 0 0 0 3 3 0 0 0 0 0 0 0 0 0 0 0 0 0 3 3 6 6 6 6
3 3 3 3 3 3 0 0 0 0 0 0 0 0 0 0 0 0 0 0 0 0 0 0 0 0 0 0 0 0 0 0 0 0 0 0 0 3 3 3 10 6 6
3 3 3 3 3 3 0 0 0 0 0 0 0 0 0 0 0 0 0 0 0 0 0 0 0 0 0 0 0 0 0 0 0 0 0 0 0 3 3 3 3 6 0
0 3 3 3 3 0 0 0 0 0 0 0 0 0 0 0 0 0 0 0 0 0 0 0 0 0 0 0 0 0 0 0 0 0 0 0 0 0 3 3 6 6 10
0 0 3 0 0 0 0 0 0 0 0 0 0 0 0 0 0 0 0 0 0 0 0 0 0 0 0 0 0 0 0 0 0 0 0 0 0 0 0 3 3 6 6
0 0 0 0 0 0 0 0 0 0 0 0 0 0 0 0 0 0 0 0 0 0 0 0 0 0 0 0 0 0 0 0 0 0 0 0 0 0 0 0 3 3 6
0 0 0 0 0 0 0 0 0 0 0 0 0 0 0 0 0 0 0 0 0 0 0 0 0 0 0 0 0 0 0 0 0 0 0 0 0 0 0 0 3 3 3
0 0 0 0 0 0 0 0 0 0 0 0 0 0 0 0 0 0 0 0 0 0 0 0 0 0 0 0 0 0 0 0 0 0 0 0 0 0 0 0 0 0 0
0 0 0 0 0 0 0 0 0 0 0 0 0 0 0 0 0 0 0 0 0 0 0 0 0 0 0 0 0 0 0 0 0 0 0 0 0 0 0 0 0 0 0
0 0 0 0 0 0 0 0 0 0 0 0 0 0 0 0 0 0 0 0 0 0 0 0 0 0 0 0 0 0 0 0 0 0 0 0 0 0 0 0 0 0 0
0 0 0 0 0 0 0 0 0 0 0 0 0 0 0 0 0 0 0 0 0 0 0 0 0 0 0 0 0 0 0 0 0 0 0 0 0 0 0 0 0 0 0
0 0 0 0 0 0 0 0 0 0 0 0 0 0 0 0 0 0 0 0 0 0 0 0 0 0 0 0 0 0 0 0 0 0 0 0 0 0 0 0 0 0 0
0 0 0 0 0 0 0 0 0 0 0 0 0 0 0 0 0 0 0 0 0 0 0 0 0 0 0 0 0 0 0 0 0 0 0 0 0 0 0 0 0 0 0
0 0 0 0 0 0 0 0 0 0 0 0 0 0 0 0 0 0 0 0 0 0 0 0 0 0 0 0 0 0 0 0 0 0 0 0 0 0 0 0 0 0 0
Height
5818 5819 5819 5820 5820 5821 5821 5822 5823 5823 5824 5825 5825 5826 5826 5827 5827 5828 5828 5829 5830 5831 5832 5833 5833 5834 5835 5836 5836 5837 5838 5838 5839 5840 5841 5842 5842 5843 5844 5845 5846 5846 5847
5816 5816 5817 5817 5818 5818 5819 5820 5820 5821 5822 5822 5823 5824 5824 5825 5825 5826 5826 5827 5828 5829 5830 5830 5831 5832 5833 5834 5834 5835 5836 5837 5838 5838 5839 5840 5841 5842 5842 5843 5844 5845 5845
5813 5813 5814 5815 5815 5816 5817 5817 5818 5819 5819 5820 5821 5821 5822 5822 5823 5823 5824 5825 5826 5826 5827 5828 5829 5830 5831 5832 5832 5833 5834 5835 5836 5837 5837 5838 5839 5840 5840 5841 5842 5843 5844
5810 5810 5811 5812 5812 5813 5814 5815 5815 5816 5817 5817 5818 5819 5819 5820 5820 5821 5821 5822 5823 5824 5825 5826 5827 5827 5828 5829 5830 5831 5831 5832 5833 5834 5835 5836 5837 5838 5838 5839 5840 5841 5842
5806 5806 5807 5808 5809 5810 5811 5811 5812 5813 5814 5814 5815 5816 5816 5817 5817 5818 5819 5819 5820 5821 5822 5823 5824 5824 5825 5826 5827 5828 5829 5829 5830 5832 5832 5833 5834 5835 5836 5837 5838 5838 5839
5802 5803 5804 5804 5805 5806 5807 5808 5808 5809 5810 5811 5812 5812 5813 5813 5814 5815 5815 5816 5817 5818 5819 5819 5820 5821 5822 5823 5824 5825 5826 5827 5828 5829 5830 5831 5832 5833 5834 5834 5835 5836 5837
5798 5799 5800 5801 5801 5802 5803 5804 5805 5805 5806 5807 5807 5808 5809 5810 5810 5811 5812 5812 5813 5814 5815 5816 5817 5817 5818 5819 5820 5821 5822 5824 5825 5826 5827 5828 5829 5830 5831 5831 5832 5833 5834
5794 5795 5795 5796 5797 5798 5799 5800 5800 5801 5802 5803 5803 5804 5805 5805 5806 5807 5808 5808 5809 5810 5811 5812 5813 5814 5815 5816 5816 5817 5819 5820 5821 5822 5823 5824 5825 5826 5827 5828 5829 5830 5831
5789 5790 5791 5791 5792 5793 5794 5795 5796 5796 5797 5798 5798 5799 5800 5801 5801 5802 5803 5804 5805 5805 5807 5808 5809 5809 5810 5812 5813 5814 5815 5816 5817 5818 5819 5820 5821 5822 5823 5824 5825 5826 5827
5784 5785 5785 5786 5787 5788 5789 5790 5790 5791 5792 5792 5793 5794 5795 5796 5796 5797 5798 5799 5800 5801 5802 5803 5804 5805 5806 5807 5808 5809 5810 5811 5813 5814 5815 5816 5817 5818 5819 5820 5821 5822 5823
5778 5779 5780 5781 5781 5782 5783 5784 5785 5785 5786 5787 5788 5788 5789 5790 5790 5791 5792 5793 5794 5795 5797 5798 5799 5800 5801 5802 5803 5804 5805 5806 5808 5809 5810 5811 5812 5813 5814 5815 5816 5817 5818
5772 5773 5774 5775 5775 5776 5777 5778 5778 5779 5780 5781 5781 5782 5782 5783 5784 5785 5785 5787 5788 5789 5791 5792 5793 5794 5796 5797 5798 5799 5800 5801 5802 5803 5805 5806 5807 5808 5809 5810 5811 5812 5813
5766 5767 5767 5768 5769 5770 5771 5771 5772 5773 5774 5774 5775 5775 5776 5776 5777 5778 5779 5780 5781 5783 5784 5785 5787 5788 5789 5791 5792 5793 5794 5795 5796 5798 5799 5800 5801 5802 5803 5804 5805 5807 5808
5759 5760 5760 5761 5762 5763 5764 5765 5765 5766 5767 5767 5768 5768 5769 5769 5770 5771 5772 5773 5774 5775 5777 5778 5780 5781 5783 5784 5785 5786 5787 5789 5790 5791 5792 5793 5794 5795 5796 5798 5799 5800 5801
5752 5752 5753 5754 5755 5756 5757 5757 5758 5759 5760 5760 5761 5761 5761 5762 5763 5764 5764 5765 5767 5768 5770 5771 5773 5774 5775 5777 5778 5779 5780 5781 5783 5784 5785 5787 5788 5789 5790 5791 5792 5793 5794
5744 5745 5745 5746 5747 5748 5749 5750 5751 5751 5752 5753 5753 5754 5754 5755 5755 5756 5757 5758 5759 5760 5762 5764 5765 5766 5768 5769 5770 5771 5773 5774 5775 5776 5778 5779 5780 5781 5782 5783 5784 5786 5787
5737 5737 5737 5738 5739 5740 5741 5742 5743 5744 5744 5745 5745 5746 5746 5747 5748 5749 5750 5751 5751 5753 5754 5756 5757 5758 5759 5760 5761 5763 5764 5765 5767 5768 5769 5771 5772 5773 5774 5775 5776 5778 5779
5729 5729 5730 5730 5730 5731 5732 5733 5734 5735 5736 5737 5737 5737 5738 5739 5739 5740 5741 5742 5743 5744 5745 5747 5748 5749 5750 5752 5753 5754 5755 5756 5757 5759 5760 5761 5763 5764 5765 5766 5767 5769 5770
5721 5721 5722 5722 5722 5723 5724 5724 5725 5726 5727 5728 5728 5729 5729 5730 5731 5732 5732 5733 5734 5735 5736 5738 5738 5740 5741 5742 5743 5744 5745 5746 5747 5749 5750 5752 5753 5754 5755 5757 5758 5759 5760
5713 5713 5714 5714 5714 5714 5715 5715 5716 5717 5717 5718 5719 5720 5720 5721 5722 5722 5723 5724 5724 5725 5726 5727 5728 5729 5730 5731 5732 5733 5733 5735 5736 5738 5739 5741 5742 5743 5744 5746 5747 5748 5749
5705 5705 5705 5706 5705 5706 5706 5706 5707 5707 5708 5708 5709 5710 5711 5711 5712 5712 5713 5714 5714 5715 5716 5716 5717 5718 5719 5719 5720 5721 5722 5723 5724 5726 5728 5729 5731 5732 5733 5734 5735 5737 5738
5697 5697 5697 5697 5697 5697 5697 5697 5697 5697 5698 5698 5699 5700 5700 5701 5702 5702 5703 5703 5703 5704 5704 5705 5706 5706 5706 5707 5708 5708 5710 5712 5712 5714 5715 5717 5718 5720 5721 5722 5723 5724 5725
5688 5688 5689 5689 5689 5689 5689 5689 5688 5688 5688 5689 5689 5689 5689 5690 5690 5691 5692 5692 5692 5693 5693 5693 5694 5694 5694 5694 5695 5696 5696 5698 5700 5702 5703 5704 5705 5706 5707 5708 5709 5711 5712
5680 5680 5680 5680 5680 5680 5680 5680 5679 5679 5679 5679 5678 5678 5679 5679 5679 5680 5680 5681 5681 5681 5682 5682 5682 5682 5682 5682 5682 5682 5683 5684 5685 5688 5690 5690 5691 5693 5693 5694 5695 5696 5697
5670 5671 5671 5671 5671 5671 5670 5670 5670 5669 5669 5668 5668 5668 5668 5667 5668 5668 5668 5669 5669 5669 5670 5670 5670 5669 5670 5669 5669 5669 5669 5670 5670 5672 5675 5676 5677 5678 5678 5679 5680 5681 5682
5662 5662 5661 5661 5661 5661 5661 5660 5660 5659 5659 5658 5657 5657 5656 5656 5656 5656 5657 5657 5657 5657 5657 5657 5657 5657 5656 5656 5656 5656 5656 5656 5656 5656 5658 5660 5662 5663 5663 5663 5664 5665 5666
Wind_Speed
13 13 13 13 12 12 11 11 10 10 9 9 9 9 9 9 10 10 10 11 11 11 11 10 10 10 10 9 9 9 9 10 10 10 10 9 9 9 8 8 7 7 7
14 14 13 13 13 13 13 12 12 11 11 11 11 10 9 9 10 10 10 11 12 12 12 12 11 11 11 10 10 10 10 10 11 11 11 11 10 10 10 9 9 9 8
15 15 15 15 14 14 14 13 13 13 12 11 12 12 11 11 11 12 12 12 13 13 13 13 13 13 12 12 12 12 12 12 12 12 12 12 12 12 11 11 11 11 10
16 16 16 16 16 15 15 15 15 15 14 14 13 14 13 13 13 13 13 13 14 14 14 14 14 14 14 13 13 13 14 14 14 14 13 13 13 13 13 13 13 12 12
18 17 17 17 17 17 17 17 17 17 17 16 16 15 15 15 15 15 15 15 15 15 15 15 15 15 15 15 15 15 15 15 15 15 15 14 14 14 14 14 14 13 13
20 19 19 19 19 18 18 18 18 18 18 18 17 17 17 16 17 16 16 17 17 17 16 16 17 17 18 17 17 16 16 16 16 16 16 16 16 16 15 15 15 14 14
21 21 20 21 21 20 20 20 20 20 19 20 20 19 19 18 18 18 18 18 18 19 18 18 18 18 18 19 19 18 18 17 17 17 17 17 17 17 16 16 16 15 15
22 22 22 22 22 22 22 22 22 22 22 21 21 21 21 20 20 20 20 20 20 20 20 20 20 19 19 19 19 20 19 19 19 19 18 18 18 18 18 18 18 17 17
23 24 24 23 23 23 23 23 23 23 23 23 23 23 23 22 23 23 22 22 21 21 21 22 22 21 21 21 20 20 21 21 20 20 20 20 19 19 20 20 19 19 19
25 25 25 25 25 24 24 24 24 24 24 24 24 24 24 24 24 25 24 24 24 24 23 23 23 23 23 23 23 22 22 22 22 22 22 22 22 21 21 21 21 21 20
27 27 27 27 26 26 26 26 26 26 26 25 25 25 26 26 26 26 26 26 26 26 25 25 25 25 25 24 24 24 24 24 24 24 24 24 24 24 23 23 23 22 22
28 28 29 28 28 28 28 27 27 27 27 27 26 26 26 27 27 28 28 27 27 27 28 27 27 26 26 26 26 26 26 26 26 25 25 26 26 27 26 25 25 25 24
29 29 30 29 29 29 29 29 28 28 28 28 28 28 28 28 28 28 28 28 28 28 28 29 28 28 28 28 28 28 27 27 28 27 27 27 27 28 28 28 28 27 26
29 30 30 30 31 30 30 30 30 29 29 29 29 29 29 29 29 29 29 29 29 29 29 29 30 30 30 29 29 29 29 29 29 29 28 28 28 28 29 29 29 29 28
30 30 31 31 31 32 32 31 31 31 31 31 31 30 30 30 30 30 30 30 30 30 30 29 30 31 31 32 31 31 31 31 31 31 30 30 30 30 30 30 31 31 30
30 30 31 31 32 33 33 32 32 33 32 32 32 32 31 31 31 31 31 31 32 32 32 31 32 32 33 33 33 33 33 33 33 33 33 32 32 33 33 33 32 32 33
30 31 31 32 33 33 34 34 33 33 33 33 33 33 33 33 33 33 33 34 34 33 33 33 34 34 35 35 35 36 36 36 36 36 35 35 35 34 35 35 35 35 35
31 32 32 32 33 34 34 35 35 34 34 35 35 34 34 35 35 35 35 36 36 36 36 36 36 37 37 37 38 38 38 38 38 38 37 37 36 36 37 37 37 37 36
32 32 32 33 33 34 34 35 36 36 36 36 36 36 36 37 37 36 37 37 38 38 38 39 38 39 40 40 40 40 40 40 40 40 40 39 39 39 39 39 39 39 39
33 33 33 33 33 34 35 36 36 37 37 38 38 38 38 38 39 39 38 39 39 40 40 40 41 41 42 41 42 42 43 42 42 42 42 42 42 42 42 42 42 42 42
33 33 33 33 33 34 35 36 37 38 39 40 40 40 40 40 41 41 40 41 40 41 41 42 42 42 43 43 43 43 44 44 44 43 43 44 44 45 45 45 44 44 44
33 34 34 34 34 35 36 36 37 38 39 41 41 41 42 42 43 43 43 43 43 42 42 43 43 44 44 44 45 45 46 46 46 46 46 46 46 47 47 47 47 47 47
34 34 35 35 35 35 36 36 37 38 39 40 41 42 43 44 44 44 45 45 44 44 44 44 44 45 45 45 46 47 47 48 48 48 49 49 49 49 50 50 49 50 50
35 36 35 36 36 36 36 37 37 38 39 40 41 43 44 45 45 45 45 45 45 44 44 44 45 45 45 46 47 48 49 50 50 50 51 51 51 52 52 53 52 53 52
34 35 36 36 36 37 37 38 38 39 39 40 41 42 43 45 45 45 45 45 45 45 45 45 46 46 47 48 48 49 50 51 51 52 52 53 54 54 54 54 55 54 54
35 35 36 36 37 38 38 39 39 40 40 40 41 42 43 44 45 46 46 47 47 47 47 47 48 48 49 49 50 51 52 53 53 54 55 55 56 56 56 56 57 57 56
Wind_Direction
255 253 251 251 251 253 255 255 254 255 258 258 258 260 262 263 261 258 259 258 258 258 257 256 256 256 256 256 254 252 252 251 245 245 245 240 241 241 238 241 240 239 238
256 253 252 252 254 255 255 256 255 256 258 257 258 261 262 265 264 261 260 260 259 258 257 257 255 255 257 256 252 251 251 251 249 246 245 244 243 241 241 244 244 244 243
256 254 253 253 254 256 256 256 255 256 256 258 260 263 265 266 267 264 262 258 259 260 258 257 257 257 257 257 255 253 253 252 253 249 246 244 243 243 243 244 244 244 244
255 253 253 253 254 255 257 258 258 256 257 259 263 265 266 268 268 263 263 260 259 261 261 258 256 256 257 256 257 255 253 253 254 250 247 246 245 245 246 246 246 246 246
255 253 254 255 255 256 257 258 258 259 260 260 262 263 264 266 268 266 264 264 262 261 262 261 258 256 257 259 258 258 255 254 254 251 249 248 247 247 248 250 249 247 248
255 254 256 257 257 257 257 258 259 260 260 261 260 261 262 265 266 266 267 265 262 262 262 262 261 259 258 258 258 257 256 256 256 253 251 250 250 249 249 250 251 250 250
257 257 258 258 258 258 258 258 259 260 260 261 261 261 260 262 262 263 265 266 265 263 263 263 261 259 258 259 258 259 257 256 256 253 253 252 251 250 250 250 251 253 253
258 258 259 260 260 260 259 259 260 260 261 261 261 261 261 261 262 263 264 264 265 263 263 262 260 259 259 259 259 259 258 257 256 254 253 253 252 253 252 251 251 252 253
257 258 259 260 261 261 260 260 260 261 261 260 261 262 262 262 263 264 264 263 264 264 264 263 261 261 261 261 260 260 260 259 258 257 256 255 254 254 254 253 253 253 254
257 258 260 260 261 261 261 261 261 261 261 262 262 262 263 263 264 264 264 263 262 263 264 263 262 260 260 260 260 260 260 260 259 258 257 256 255 254 254 255 255 255 256
258 259 260 261 261 261 261 261 261 262 262 263 263 263 264 264 264 264 264 263 262 262 262 262 262 261 260 259 259 259 260 261 261 259 257 256 256 255 255 255 256 256 257
259 259 260 260 260 260 261 261 261 261 262 263 264 265 265 265 265 265 264 263 262 262 262 262 262 261 260 258 257 257 259 260 260 260 259 258 257 257 257 256 256 257 257
260 260 260 260 260 260 261 261 261 261 261 263 264 265 266 266 265 265 264 263 263 262 262 261 261 260 260 258 257 257 258 259 259 260 260 260 259 258 258 257 257 257 257
262 262 261 261 261 261 262 262 262 262 262 263 265 266 266 266 266 266 265 264 263 262 261 261 262 262 261 259 258 257 257 258 259 260 260 260 259 259 258 257 257 257 258
264 263 262 261 261 262 263 262 262 263 263 264 264 265 266 266 266 265 264 264 264 263 262 261 262 262 262 260 258 257 258 259 259 260 260 260 259 259 259 259 258 258 259
265 264 263 261 261 261 262 262 263 263 264 264 264 265 266 266 265 265 264 264 264 263 262 262 262 262 262 261 260 259 260 260 260 260 260 260 260 260 260 260 260 260 259
266 266 265 263 261 261 261 262 263 263 263 264 264 265 266 265 265 265 265 265 264 263 262 262 264 262 262 262 262 262 262 261 260 260 260 259 259 259 260 260 261 261 261
267 267 266 265 263 262 262 262 263 263 264 264 265 266 265 265 265 266 265 265 264 262 261 263 265 263 262 263 264 264 264 262 261 260 259 259 259 259 260 260 261 261 261
267 267 267 266 266 265 264 263 263 264 264 264 265 266 266 265 265 266 266 267 265 263 263 265 266 265 263 264 264 265 264 263 262 260 259 259 259 260 260 260 260 260 261
267 267 268 268 267 267 266 266 265 264 264 264 266 266 266 266 266 267 267 266 266 264 265 266 266 266 265 264 264 265 264 262 262 261 259 260 260 261 262 262 261 261 261
267 267 268 269 269 269 268 267 266 266 266 265 266 267 267 267 267 268 268 267 266 266 267 266 266 267 266 265 264 264 264 263 262 261 261 261 262 262 262 263 262 261 261
267 267 268 269 270 270 270 269 268 268 267 267 266 267 268 268 268 268 268 268 268 268 268 267 266 266 266 265 265 265 263 262 262 262 262 262 263 262 262 263 263 262 261
268 268 269 269 269 271 272 272 271 270 269 268 268 267 267 268 269 269 269 268 267 268 268 269 267 267 267 267 267 266 265 264 263 262 262 262 263 263 263 264 264 263 262
268 267 268 269 269 270 272 273 272 272 271 270 269 268 268 268 268 269 269 268 268 269 268 268 267 267 268 268 267 267 266 266 265 263 261 263 264 264 264 264 264 263 263
269 269 268 270 270 270 271 272 272 273 272 271 270 269 269 268 268 268 269 268 268 268 269 269 268 269 270 270 269 268 267 267 267 265 263 263 264 264 264 264 264 263 262
270 270 269 271 271 270 271 271 273 273 272 272 271 270 269 269 268 268 268 268 268 269 270 270 270 271 271 271 271 269 269 269 268 267 265 264 264 264 264 264 264 263 263